Location: Blue Mountain Vista Observatory
(40.6992°N, 75.9422°W)
Time: 06:26:32
(UTC-04:00)

Daily predictions for brighter satellites

Satellite Brightness Start Highest point End
(mag) Time Altitude Azimuth Time Altitude Azimuth Time Altitude Azimuth
SL-27 R/B 2.5 20:52:55 10° SSW 20:56:34 80° ESE 21:00:13 10° NNE
Cosmos 1441 Rocket 3.3 20:54:08 10° S 20:57:45 51° E 21:01:24 10° NNE
H-2A R/B 4.1 20:59:42 10° E 21:01:29 12° ENE 21:03:17 10° NE
Tiangong 2 1.5 20:58:57 10° W 21:02:08 65° N 21:05:18 10° ENE
Helios 1B rocket 2.4 20:58:53 10° NNE 21:03:01 64° ESE 21:07:06 10° S
Cosmos 1680 Rocket 3.9 20:59:37 10° SSW 21:04:49 72° WNW 21:10:03 10° NNE
Meteor 2-13 Rocket 4.5 20:59:18 10° N 21:05:24 83° E 21:11:30 10° S
Meteor 1-19 Rocket 4.4 21:00:20 10° S 21:06:09 82° W 21:11:53 10° N
Aureole 1 Rocket 2.5 21:03:57 10° SSW 21:07:08 69° WNW 21:10:07 10° NNE
Meteor 1-23 Rocket 4.4 21:01:55 10° S 21:07:19 55° E 21:12:49 10° NNE
Cosmos 1346 4.0 21:05:15 10° SSW 21:07:56 47° WNW 21:10:37 10° N
Cosmos 2056 Rocket 4.0 21:04:35 10° N 21:09:30 43° ENE 21:14:19 10° SE
Envisat 3.1 21:05:44 10° SSE 21:10:49 86° WSW 21:15:56 10° NNW
DNEPR-1 R/B 4.3 21:11:00 10° NW 21:15:09 50° WSW 21:19:43 10° SSE
Lacrosse 5 rocket 4.5 21:14:48 10° N 21:15:44 10° N 21:16:40 10° NNE
SAR-Lupe-4 3.5 21:12:19 10° SSE 21:15:53 87° E 21:19:30 10° NNW
Cosmos 2082 Rocket 3.2 21:11:41 10° SSE 21:16:13 25° ESE 21:20:46 10° NE
Cosmos 2278 4.4 21:13:04 10° N 21:18:25 40° ENE 21:23:15 12° SE
COSMOS 2406 4.4 21:14:15 10° SW 21:19:45 47° WNW 21:25:16 10° NNE
Okean 1-7 Rocket 3.6 21:18:28 10° S 21:22:55 81° E 21:27:28 10° N
YAOGAN 6 2.5 21:19:57 10° SSE 21:23:23 63° ENE 21:26:53 10° N
Cosmos 1743 4.3 21:19:48 10° NNW 21:23:25 36° W 21:27:00 10° SSW
Okean 2 3.5 21:21:42 10° S 21:25:41 57° E 21:29:42 10° NNE
Cosmos 1606 Rocket 3.9 21:22:53 10° N 21:27:03 45° E 21:30:35 14° SSE
Cosmos 1025 Rocket 2.9 21:26:44 10° S 21:31:00 88° ESE 21:35:17 10° N
SPOT 5 3.7 21:28:06 14° ESE 21:31:04 29° ENE 21:34:50 10° N
CZ-4B DEB 3.3 21:29:13 10° S 21:32:08 52° W 21:35:04 10° NNW
SAR-Lupe-1 4.3 21:28:35 10° S 21:32:09 68° WSW 21:35:44 10° NNW
Meteor 1-15 Rocket 4.2 21:26:55 10° N 21:32:31 75° E 21:38:01 10° SSE
Cosmos 1656 4.5 21:28:01 10° N 21:33:02 36° ENE 21:37:02 15° ESE
Cosmos 1697 Rocket 4.0 21:29:07 10° N 21:33:53 27° NE 21:37:54 13° ESE
MOS 1-B Rocket 4.3 21:29:13 13° SE 21:34:22 54° ENE 21:40:48 10° N
Cosmos 1726 Rocket 3.9 21:31:48 10° N 21:35:59 47° ENE 21:39:06 17° SSE
Cosmos 2341 Rocket 4.2 21:30:41 10° N 21:36:57 57° E 21:42:28 14° SSE
Cosmos 405 3.6 21:34:22 10° NNW 21:37:52 56° W 21:41:20 10° S
Cosmos 2369 4.0 21:33:27 10° NNW 21:39:07 57° ENE 21:43:25 17° SE
Cosmos 1666 4.3 21:37:23 10° NNW 21:40:47 33° W 21:44:09 10° SSW
Cosmos 1452 Rocket 4.4 21:36:25 10° N 21:41:14 35° ENE 21:44:39 17° ESE
COSMOS 2487 2.7 21:37:51 10° S 21:41:16 46° ESE 21:44:43 10° NNE
CENTAUR R/B 4.4 21:35:46 10° NW 21:42:48 34° WSW 21:50:05 10° S
MetOp-A 4.2 21:41:22 15° SSE 21:45:44 64° ENE 21:51:03 10° N
ERS-1 Rocket 2.9 21:41:26 13° SSE 21:45:56 85° ENE 21:50:59 10° NNW
USA 245 3.5 21:47:12 22° E 21:47:29 23° ENE 21:49:24 10° NNE
Cosmos 1833 Rocket 3.0 21:43:45 10° S 21:49:02 44° ESE 21:54:21 10° NE
Cosmos 1371 Rocket 4.4 21:44:09 10° NNW 21:49:24 63° WSW 21:54:08 12° S
ISS -1.0 21:49:25 10° WNW 21:51:59 20° NNW 21:54:33 10° NNE
OAO 2 Rocket 4.1 21:47:50 10° WSW 21:52:15 33° SSW 21:54:39 22° SSE
SPOT 1/Viking Rocket 4.3 21:49:30 19° SE 21:52:39 39° ENE 21:57:25 10° N
Cosmos 2058 Rocket 3.2 21:51:30 10° N 21:55:53 58° E 21:58:30 23° SSE
Iridium 43 4.4 21:58:58 10° NNE 22:00:46 31° ENE 22:00:46 31° ENE
YAOGAN 11 4.0 22:02:03 24° SSE 22:04:35 76° ENE 22:08:57 10° N
Cosmos 1295 Rocket 4.5 21:58:25 10° N 22:04:39 77° E 22:09:16 19° SSE
Cosmos 2181 Rocket 4.0 21:58:45 10° S 22:05:07 80° E 22:11:24 10° N
ASTEX 1 4.3 22:01:32 10° SSW 22:06:13 46° W 22:10:56 10° NNW
Cosmos 1437 Rocket 3.6 22:02:35 10° NNW 22:06:18 47° W 22:09:19 15° SSW
Cosmos 1066 Rocket 4.3 22:06:49 19° S 22:10:40 60° E 22:16:13 10° NNE
Cosmos 1515 4.3 22:09:19 11° SSW 22:12:54 56° W 22:16:40 10° N
H-2A R/B 3.6 22:11:41 20° E 22:13:16 25° ENE 22:16:57 10° NNE
Cosmos 1626 Rocket 3.7 22:21:47 36° SE 22:23:08 52° E 22:27:20 10° NNE
Cosmos 1980 Rocket 3.0 22:17:56 10° N 22:23:14 39° ENE 22:25:49 25° ESE
ARGOS 3.2 22:20:51 24° S 22:24:15 77° WSW 22:29:43 10° NNW
Cosmos 2228 3.3 22:29:39 10° NNW 22:33:54 60° W 22:35:49 30° SSW
TELKOM 3 3.7 22:31:38 10° WNW 22:33:54 61° WSW 22:33:54 61° WSW
Cosmos 2322 Rocket 4.0 22:30:37 10° N 22:34:43 20° NE 22:37:39 14° E
Cosmos 921 Rocket 4.2 22:30:36 10° NNW 22:34:43 37° W 22:37:02 21° SSW
Cosmos 1953 4.2 22:32:29 10° NNE 22:35:12 17° ENE 22:35:24 17° ENE
Tiangong 2 1.3 22:35:53 10° WNW 22:39:02 64° N 22:39:21 59° NE
H-2A R/B 1.9 22:38:01 36° S 22:40:06 86° WSW 22:45:12 10° NNW
SL-8 Rocket 4.1 22:34:11 10° N 22:40:27 75° W 22:44:11 26° S
Landsat 7 3.8 22:40:01 42° SSE 22:41:34 74° ENE 22:46:21 10° N
Cosmos 1766 3.4 22:38:26 10° N 22:42:16 52° E 22:42:35 51° E
Meteor 1-21 4.4 22:41:29 37° SSE 22:43:32 56° E 22:49:09 10° NNE
Cosmos 2366 rocket 3.9 22:41:11 10° N 22:47:23 89° W 22:50:17 34° S
CZ-3A R/B 3.2 22:50:16 10° WNW 22:51:21 12° NW 22:51:31 12° NW
Lacrosse 5 rocket 3.7 22:52:58 10° NNW 22:56:35 22° NNE 22:59:32 13° ENE
Terra 1.8 22:55:30 51° SE 22:56:36 73° ENE 23:01:22 10° N
Meteor 1-4 Rocket 3.3 22:54:27 10° NNW 22:57:50 41° W 22:58:16 39° WSW
Cosmos 1602 Rocket 3.8 22:57:24 38° SSW 22:58:52 64° W 23:03:10 10° N
Cosmos 2082 Rocket 3.2 22:54:34 10° SW 22:59:59 45° WNW 23:05:25 10° NNE
Cosmos 1269 Rocket 4.0 23:01:07 34° SSW 23:03:31 85° WNW 23:08:52 10° NNE
Cosmos 1420 Rocket 4.2 23:02:22 10° NNW 23:07:33 61° WSW 23:08:59 44° SSW
SPOT 5 4.4 23:07:21 18° SW 23:09:09 24° W 23:12:42 10° NW
DMSP B5D2-2 4.3 23:04:16 10° N 23:09:32 70° WNW 23:11:58 32° SSW
Cosmos 1048 Rocket 4.1 23:08:12 31° SSW 23:10:39 70° WNW 23:15:51 10° NNE
Cosmos 1805 3.4 23:07:06 10° N 23:10:42 60° ENE 23:10:42 60° ENE
Meteor 2-14 Rocket 4.5 23:07:27 10° NNW 23:13:30 72° W 23:15:45 40° SSW
deb Chang Zheng 4 3.4 23:09:43 10° NNE 23:14:04 90° SSE 23:14:27 74° SSW
Cosmos 1110 Rocket 4.4 23:12:40 10° N 23:17:46 49° ENE 23:18:39 44° E
Cosmos 1697 Rocket 3.4 23:12:42 10° NW 23:18:00 44° WSW 23:19:38 35° SSW
Cosmos 1758 3.6 23:14:31 10° N 23:18:04 56° NE 23:18:04 56° NE
Cosmos 389 Rocket 3.6 23:16:05 10° N 23:18:31 36° NNE 23:18:31 36° NNE
Spot 4 3.8 23:21:37 63° ESE 23:22:07 69° ENE 23:26:55 10° N
USA 267 3.9 23:17:55 10° ENE 23:22:58 34° ESE 23:22:58 34° ESE
Lacrosse 5 2.7 23:25:30 37° E 23:25:30 37° E 23:28:55 10° NE
CARTOSAT-1 3.9 23:24:03 51° WSW 23:24:25 53° W 23:28:40 10° NNW
Cosmos 2360 4.2 23:21:12 10° NNW 23:26:56 77° WSW 23:28:04 58° S
Iridium 2 4.1 23:24:15 10° N 23:27:42 57° WNW 23:27:42 57° WNW
SL-16 R/B 2.8 23:22:48 10° NNW 23:28:17 47° ENE 23:29:33 40° E
ISS -0.5 23:27:57 10° NNW 23:29:26 12° N 23:30:56 10° NNE
Cosmos 1934 Rocket 4.4 23:24:31 10° N 23:30:42 50° ENE 23:32:02 43° ESE
NOSS 3-1 (C) 4.3 23:23:38 10° NNW 23:31:08 62° NE 23:34:52 34° ESE
SeaSat 1 4.3 23:30:49 17° ENE 23:32:40 20° NE 23:36:14 10° N
IGS 5A 4.1 23:32:35 44° WSW 23:32:41 44° W 23:36:41 10° NNW
CZ-2C R/B 4.5 23:33:01 26° E 23:34:17 28° ENE 23:39:02 10° N
DELTA 2 DEB (DPAF) 4.0 23:34:36 81° ENE 23:34:37 81° ENE 23:39:07 10° N
Cosmos 1842 4.3 23:38:51 39° W 23:39:01 39° WNW 23:42:45 10° N
ATLAS CENTAUR R/B 2.3 23:35:38 10° NNW 23:38:30 37° NNE 23:38:30 37° NNE
Cosmos 1271 Rocket 3.9 23:37:10 10° NNW 23:40:35 37° W 23:40:35 37° W
CZ-4C R/B 4.0 23:45:30 46° NNW 23:45:30 46° NNW 23:48:11 10° NNW
Cosmos 1758 Rocket 3.6 23:47:43 73° NNW 23:47:43 73° NNW 23:51:43 10° N
Cosmos 2251 Rocket 3.4 23:47:57 72° ESE 23:48:05 72° ESE 23:53:28 10° NNE
H-2A R/B 3.4 23:48:48 32° WSW 23:49:06 32° W 23:53:11 10° NNW
Cosmos 1733 4.1 23:45:52 10° N 23:48:41 44° NNE 23:48:41 44° NNE
